Location: Fontevrault
(47.1823°N, 0.0493°E)
Time: 09:18:23
(UTC+00:00)

Cosmos 2278 Rocket - Pass Details

Date: 16 June 2021
Orbit: 840 x 847 km, 71.0° (Epoch: 03 August)

Event Time Altitude Azimuth Distance (km) Brightness Sun altitude
Rises 22:06:06 0° 337° (NNW) 3,411 7.3 -14.9°
Reaches altitude 10° 22:08:47 10° 346° (NNW) 2,473 5.9 -15.1°
Maximum altitude 22:13:57 35° 52° (NE) 1,334 3.3 -15.4°
Enters shadow 22:18:15 14° 113° (ESE) 2,179 3.9 -15.8°
